Location: Taupo
(38.6830°S, 176.0830°E)
Time: 00:05:32
(UTC+12:00)

Cosmos 2322 Rocket - Pass Details

Date: 24 January 2019
Orbit: 832 x 851 km, 71.0° (Epoch: 21 April)

Event Time Altitude Azimuth Distance (km) Brightness Sun altitude
Rises 21:10:28 0° 2° (N) 3,381 5.0 -6.5°
Reaches altitude 10° 21:13:02 10° 9° (N) 2,458 4.2 -7.0°
Maximum altitude 21:18:12 38° 75° (ENE) 1,281 2.7 -7.8°
Drops below altitude 10° 21:23:27 10° 141° (SE) 2,498 4.6 -8.7°
Sets 21:26:04 0° 149° (SSE) 3,444 5.4 -9.1°
